APSTAR-6E

Last updated on Sun Apr 12 2026 00:02:56 GMT+0000 (Coordinated Universal Time)

1 55239U 23005A 26101.80157281 -.00000316 00000+0 00000+0 0 9995 2 55239 0.0143 215.7891 0000574 147.9910 258.7676 1.00273574 18025
UTC large
Height (km)
Speed (km/s)
/
Latitude / Longitude
Inclination (degrees)
Orbital Period (minutes)
Azimuth
Elevation
Range (km)
Doppler Factor

Next 0 passes for location: London (51.5072 / 0.1276)

Sorry there are no passes over London.
APSTAR-6E